User: anonymous   Login
Location: Pilipovskiye Korichintsy
(49.1833°N, 27.4667°E)
Time: 08:20:51
(UTC+00:00)
Language:

Cosmos 2016 Rocket - Orbit

View from above orbital plane
View from above orbital plane
View from above satellite
View from above satellite

Ground track
Ground track

The orbit data is extracted from the following two-line orbital elements,

1 19922U 89028B   20271.91985521 +.00000008 +00000-0 -77224-5 0  9998
2 19922 082.9554 257.4951 0037684 126.5996 233.8638 13.77222417581976
Epoch (UTC): 27 September 2020 22:04:35
Eccentricity: 0.0037684
inclination: 82.9554°
perigee height: 946 km
apogee height: 1001 km
right ascension of ascending node: 257.4951°
argument of perigee: 126.5996°
revolutions per day: 13.77222417
mean anomaly at epoch: 233.8638°
orbit number at epoch: 58197

The dashed part of the orbit path shows where the satellite is in the earth's shadow,  

DLR